Location: ??
(34.7707°N, 135.6540°E)
Time: 07:41:32
(UTC+00:00)

ATLAS 5 CENTAUR R/B - Pass Details

Date: 09 April 2020
Orbit: 543 x 1116 km, 63.4° (Epoch: 01 May)

Event Time Altitude Azimuth Distance (km) Brightness Sun altitude
Rises 18:36:49 0° 335° (NNW) 3,386 5.4 -23.2°
Reaches altitude 10° 18:39:14 10° 341° (NNW) 2,535 4.8 -22.7°
Maximum altitude 18:45:02 49° 55° (NE) 1,238 3.4 -21.7°
Drops below altitude 10° 18:51:36 10° 129° (SE) 2,868 5.2 -20.5°
Sets 18:54:29 0° 135° (SE) 3,870 5.9 -19.9°
